Weather History for Mattoon, IL

Change the Weather History Date:

Saturday, March 30, 2013

  Actual Average Record
Temperature  
Mean Temperature 46 °F 48 °F  
Max Temperature 55 °F 58 °F 84 °F (1986)
Min Temperature 37 °F 37 °F 18 °F (1964)
Degree Days  
Heating Degree Days 19 18  
Month to date heating degree days 881 682  
Since 1 July heating degree days 4844 4886  
Cooling Degree Days 0 0  
Month to date cooling degree days 0 0  
Year to date cooling degree days 0 0  
Moisture  
Dew Point 39 °F    
Average Humidity 67    
Maximum Humidity 79    
Minimum Humidity 54    
Precipitation  
Precipitation 0.01 in 0.11 in 1.25 in (1980)
Month to date precipitation 0.94 2.46  
Year to date precipitation 7.39 6.44  
Sea Level Pressure  
Sea Level Pressure 30.07 in    
Wind  
Wind Speed 7 mph (South)    
Max Wind Speed 16 mph    
Max Gust Speed 22 mph    
Visibility 10 miles    
Events Rain    
T = Trace of Precipitation, MM = Missing Value Source: NWS Daily Summary

Daily Weather History Graph

Daily Weather History Graph

Search for Another Location

Airport:

Trip Planner

Search our weather history database for the weather conditions in past years. The results will help you decide how hot, cold, wet, or windy it might be!

Date:

Astronomy

Mar. 30, 2013 Rise Set
Actual Time 6:40 AM CDT 7:15 PM CDT
Civil Twilight 6:13 AM CDT 7:42 PM CDT
Nautical Twilight 5:41 AM CDT 8:14 PM CDT
Astronomical Twilight 5:08 AM CDT 8:47 PM CDT
Moon 11:20 PM CDT (3/30) 8:36 AM CDT (3/30)
Length of Visible Light 13h 29m
Length of Day
12h 35m
Waning Gibbous, 86% of the Moon is Illuminated
Mar 30
Waning Gibbous
Apr 2
Last Quarter
Apr 10
New
Apr 18
First Quarter
Apr 25
Full

Hourly Weather History & Observations

Time (CDT) Temp. Windchill Dew Point Humidity Pressure Visibility Wind Dir Wind Speed Gust Speed Precip Events Conditions
12:53 AM 42.1 °F - 33.1 °F 70% 30.23 in 10.0 mi Calm Calm - N/A   Scattered Clouds
1:53 AM 39.9 °F - 33.1 °F 77% 30.22 in 10.0 mi Calm Calm - N/A   Clear
2:53 AM 39.0 °F - 33.1 °F 79% 30.20 in 10.0 mi Calm Calm - N/A   Clear
3:53 AM 41.0 °F 39.0 °F 33.1 °F 73% 30.20 in 10.0 mi SE 3.5 mph - N/A   Clear
4:53 AM 39.9 °F 37.8 °F 34.0 °F 79% 30.21 in 10.0 mi SE 3.5 mph - N/A   Clear
5:53 AM 37.9 °F 35.5 °F 30.9 °F 76% 30.19 in 10.0 mi SE 3.5 mph - N/A   Clear
6:53 AM 39.9 °F 35.8 °F 32.0 °F 73% 30.20 in 10.0 mi South 5.8 mph - N/A   Clear
7:53 AM 39.9 °F 35.1 °F 32.0 °F 73% 30.18 in 10.0 mi SSE 6.9 mph - N/A   Clear
8:53 AM 46.0 °F 41.9 °F 37.0 °F 71% 30.17 in 10.0 mi SSE 8.1 mph - N/A   Clear
9:53 AM 50.0 °F - 41.0 °F 71% 30.15 in 10.0 mi SSE 11.5 mph - N/A   Clear
10:53 AM 51.1 °F - 41.0 °F 68% 30.14 in 10.0 mi SSE 11.5 mph - N/A   Clear
11:53 AM 53.1 °F - 42.1 °F 66% 30.13 in 10.0 mi SSE 12.7 mph - N/A   Clear
12:53 PM 53.1 °F - 41.0 °F 64% 30.10 in 10.0 mi South 12.7 mph - N/A   Clear
1:53 PM 54.0 °F - 42.1 °F 64% 30.07 in 10.0 mi SSE 13.8 mph 19.6 mph N/A   Scattered Clouds
2:53 PM 54.0 °F - 41.0 °F 62% 30.04 in 10.0 mi South 8.1 mph 17.3 mph N/A   Partly Cloudy
3:53 PM 54.0 °F - 37.9 °F 55% 30.01 in 10.0 mi South 10.4 mph - N/A   Partly Cloudy
4:53 PM 54.0 °F - 39.9 °F 59% 29.99 in 10.0 mi South 9.2 mph - N/A   Mostly Cloudy
5:53 PM 54.0 °F - 39.9 °F 59% 29.97 in 10.0 mi South 6.9 mph - N/A   Clear
6:53 PM 52.0 °F - 41.0 °F 66% 29.95 in 10.0 mi SSE 5.8 mph - N/A   Clear
7:53 PM 50.0 °F - 39.9 °F 68% 29.94 in 10.0 mi South 3.5 mph - N/A   Clear
8:53 PM 51.1 °F - 39.0 °F 63% 29.94 in 10.0 mi South 4.6 mph - N/A   Overcast
9:53 PM 50.0 °F - 43.0 °F 77% 29.94 in 10.0 mi SSW 5.8 mph - N/A   Overcast
10:53 PM 48.0 °F - 46.0 °F 93% 29.93 in 7.0 mi SW 5.8 mph - 0.00 in Rain Light Rain
11:03 PM 48.2 °F - 46.4 °F 93% 29.92 in 7.0 mi SW 5.8 mph - 0.00 in Rain Light Rain
11:40 PM 46.4 °F 42.4 °F 44.6 °F 93% 29.91 in 7.0 mi WSW 8.1 mph - 0.01 in   Overcast
11:53 PM 46.0 °F 43.1 °F 43.0 °F 89% 29.92 in 10.0 mi WSW 5.8 mph - 0.01 in   Overcast